Obergurgl, Austria 16 day weather forecast

Slopes altitude range 1795 m - 3080m

Number of lifts: 24 Pistes: 110km

In some cases the lift and piste totals shown are for the ski domain (e.g. Three Valleys) rather than individual resort (e.g. Courchevel)

Overview

The 16 day weather forecast is fully updated 4 times every day.

    • Sat 20 APR 2019
    • Sat 20
    • -2C 4C
    • Sun 21 APR 2019
    • Sun 21
    • -1C 7C
    • Mon 22 APR 2019
    • Mon 22
    • 0C 7C
    • Tue 23 APR 2019
    • Tue 23
    • -1C 5C
    • Wed 24 APR 2019
    • Wed 24
    • 0C 4C
    • Thu 25 APR 2019
    • Thu 25
    • 1C 4C
    • Fri 26 APR 2019
    • Fri 26
    • -5C 0C
    • Sat 27 APR 2019
    • Sat 27
    • -6C -4C
    • Sun 28 APR 2019
    • Sun 28
    • -4C -1C
    • Mon 29 APR 2019
    • Mon 29
    • -2C 1C
    • Tue 30 APR 2019
    • Tue 30
    • -3C 7C
    • Wed 01 MAY 2019
    • Wed 01
    • 0C 8C
    • Thu 02 MAY 2019
    • Thu 02
    • 1C 9C
    • Fri 03 MAY 2019
    • Fri 03
    • -1C 11C
    • Sat 04 MAY 2019
    • Sat 04
    • 1C 12C
    • Sun 05 MAY 2019
    • Sun 05
    • 1C 13C

Date:

Time Type 0°C level Temp Chill Snow Cloud Speed Gust Dir Press
3:00 1564m -6°C -6_8 0cm 0% 8mph 9mph 1030mB
6:00 2030m -6°C -6_7 0cm 0% 7mph 8mph 1029mB
9:00 2674m -2°C -2_6 0cm 0% 6mph 6mph 1027mB
12:00 2892m 4°C 4_6 0cm 0% 6mph 6mph 1026mB
15:00 2966m 5°C 5_6 0cm 0% 6mph 6mph 1025mB
18:00 2159m 5°C 5_3 0cm 0% 3mph 5mph 1025mB
21:00 2006m -3°C -3_6 0cm 0% 6mph 7mph 1027mB
0:00 1892m -4°C -4_7 0cm 0% 7mph 9mph 1027mB
3:00 1793m -4°C -4_7 0cm 0% 7mph 9mph 1025mB
6:00 2303m -5°C -5_7 0cm 1% 7mph 8mph 1024mB
9:00 2851m -1°C -1_5 0cm 2% 5mph 5mph 1021mB
12:00 3060m 7°C 7_6 0cm 5% 6mph 6mph 1019mB
15:00 3093m 7°C 7_8 0cm 48% 8mph 8mph 1017mB
18:00 2818m 7°C 7_8 0cm 74% 8mph 10mph 1017mB
21:00 2118m -2°C -2_10 0cm 75% 10mph 12mph 1019mB
0:00 2027m -3°C -3_11 0cm 52% 11mph 12mph 1018mB
3:00 1965m -3°C -3_10 0cm 93% 10mph 11mph 1017mB
6:00 2450m -3°C -3_10 0cm 95% 10mph 12mph 1015mB
9:00 2833m 0°C 0_10 0cm 99% 10mph 11mph 1011mB
12:00 3031m 7°C 7_11 0cm 100% 11mph 11mph 1009mB
15:00 3048m 7°C 7_10 0cm 72% 10mph 11mph 1006mB
18:00 2782m 7°C 7_10 0cm 74% 10mph 11mph 1006mB
21:00 2281m -1°C -1_12 0cm 100% 12mph 15mph 1006mB
0:00 2352m -1°C -1_12 0cm 100% 12mph 15mph 1005mB
3:00 2237m -2°C -2_12 1cm 100% 12mph 15mph 1003mB
6:00 2370m -2°C -2_12 1cm 100% 12mph 14mph 1002mB
9:00 2645m -1°C -1_11 1cm 100% 11mph 13mph 1001mB
12:00 2849m 5°C 5_11 1cm 100% 11mph 13mph 1000mB
15:00 2895m 6°C 6_11 1cm 100% 11mph 12mph 1000mB
18:00 2751m 6°C 6_10 2cm 99% 10mph 12mph 1001mB
21:00 2636m 1°C 1_11 2cm 100% 11mph 14mph 1004mB
0:00 2579m 0°C 0_11 1cm 100% 11mph 14mph 1006mB
3:00 2499m 0°C 0_10 1cm 99% 10mph 13mph 1007mB
6:00 2534m -1°C -1_10 2cm 99% 10mph 13mph 1008mB
9:00 2700m 0°C 0_12 1cm 100% 12mph 15mph 1009mB
12:00 2817m 4°C 4_13 1cm 99% 13mph 16mph 1009mB
15:00 2831m 4°C 4_12 1cm 99% 12mph 15mph 1008mB
18:00 2807m 4°C 4_12 1cm 99% 12mph 16mph 1010mB
21:00 2775m 1°C 1_13 1cm 100% 13mph 16mph 1013mB
0:00 2702m 1°C 1_13 1cm 100% 13mph 18mph 1014mB
3:00 2696m 1°C 1_14 1cm 95% 14mph 19mph 1013mB
6:00 2710m 0°C 0_14 1cm 91% 14mph 19mph 1013mB
9:00 2785m 1°C 1_16 1cm 81% 16mph 20mph 1012mB
12:00 2912m 4°C 4_14 0cm 84% 14mph 17mph 1011mB
15:00 2934m 4°C 4_15 0cm 94% 15mph 18mph 1009mB
18:00 2820m 4°C 4_13 1cm 92% 13mph 17mph 1009mB
21:00 2795m 1°C 1_13 0cm 97% 13mph 18mph 1010mB
0:00 2762m 1°C 1_10 1cm 98% 10mph 14mph 1010mB
3:00 2619m 0°C 0_9 2cm 100% 9mph 11mph 1010mB
6:00 2455m 0°C 0_6 2cm 98% 6mph 7mph 1010mB
9:00 2343m -1°C -1_6 3cm 100% 6mph 7mph 1012mB
12:00 1761m 0°C 0_14 6cm 100% 14mph 16mph 1014mB
15:00 1640m -5°C -5_14 5cm 100% 14mph 17mph 1015mB
18:00 1557m -5°C -5_12 5cm 100% 12mph 16mph 1017mB
21:00 1469m -7°C -7_12 3cm 100% 12mph 16mph 1019mB
0:00 1492m -7°C -7_14 4cm 100% 14mph 17mph 1020mB
3:00 1507m -7°C -7_14 3cm 100% 14mph 18mph 1020mB
6:00 1614m -7°C -7_14 3cm 100% 14mph 18mph 1022mB
9:00 1847m -6°C -6_16 2cm 100% 16mph 19mph 1023mB
12:00 1841m -4°C -4_15 2cm 100% 15mph 18mph 1024mB
15:00 1791m -4°C -4_14 1cm 100% 14mph 16mph 1024mB
18:00 1551m -4°C -4_11 1cm 100% 11mph 14mph 1026mB
21:00 1443m -7°C -7_8 1cm 100% 8mph 10mph 1028mB
0:00 1694m -7°C -7_8 1cm 100% 8mph 11mph 1027mB
3:00 1823m -5°C -5_8 1cm 100% 8mph 11mph 1026mB
6:00 1952m -5°C -5_10 1cm 100% 10mph 12mph 1025mB
9:00 2171m -4°C -4_10 1cm 100% 10mph 11mph 1023mB
12:00 2306m -1°C -1_10 1cm 100% 10mph 11mph 1022mB
15:00 2294m -1°C -1_10 1cm 98% 10mph 10mph 1020mB
18:00 2231m -1°C -1_8 1cm 99% 8mph 10mph 1022mB
21:00 2045m -3°C -3_4 1cm 99% 4mph 5mph 1024mB
0:00 1672m -5°C -5_2 1cm 98% 2mph 3mph 1023mB
3:00 1284m -8°C -8_1 0cm 77% 1mph 2mph 1022mB
6:00 2121m -8°C -8_3 0cm 61% 3mph 4mph 1020mB
9:00 2496m -2°C -2_6 0cm 42% 6mph 7mph 1017mB
12:00 2595m 1°C 1_7 1cm 61% 7mph 7mph 1015mB
15:00 2614m 1°C 1_7 1cm 99% 7mph 8mph 1013mB
18:00 2574m 1°C 1_4 1cm 93% 4mph 5mph 1015mB
21:00 2102m -3°C -3_3 0cm 81% 3mph 4mph 1017mB
0:00 1825m -4°C -4_4 0cm 74% 4mph 5mph 1016mB
Afternoon 0.00520833mm 0.0625 3004m 7°C 7_1 0cm 1% 1mph 1mph 1011mB
Morning 0.166667mm 2 3004m 0°C 0_8 0cm 44% 8mph 9mph 1011mB
Afternoon 0mm 0 3136m 8°C 8_11 0cm 67% 11mph 13mph 1008mB
Morning 0mm 0 3258m 1°C 1_12 0cm 97% 12mph 16mph 1010mB
Afternoon 0.0885417mm 0.875 3080m 9°C 9_11 0cm 84% 11mph 13mph 1009mB
Morning 0.260417mm 2.9375 3194m 1°C 1_7 0cm 83% 7mph 8mph 1012mB
Afternoon 0.109375mm 1.3125 3265m 11°C 11_3 0cm 64% 3mph 5mph 1009mB
Morning 0.963542mm 9.0625 3301m 3°C 3_3 0cm 98% 3mph 4mph 1012mB
Afternoon 0.239583mm 2.8125 3386m 12°C 12_9 0cm 95% 9mph 9mph 1010mB
Morning 0.802083mm 9 3435m 3°C 3_4 0cm 100% 4mph 5mph 1012mB
Afternoon 0.0625mm 0.5625 3384m 13°C 13_2 0cm 97% 2mph 4mph 1010mB
Morning 1.19271mm 3.0625 3185m 5°C 5_5 0cm 100% 5mph 6mph 1012mB

16 day outlook at a glance

Forecast issued: 20/04/2019 06:18:04

Chat

Your comments and questions. In a resort? Let us know what it's like!


Characters left 250

For terms and conditions see Readers Comments on the Cookie and privacy policy page.